Flag for Canada Weather past 2 weeks in Levis, Quebec, Canada

Now
63 °F

Passing clouds.


Feels Like: 63 °F
Forecast: 60 / 75 °F
Wind: No wind

Location: Valcartier Airport

Current Time: Jul 23, 2014 at 4:28:46 AM

Latest Report: Jul 23, 2014 at 4:03 AM


Visibility: 1 mi

Pressure: 29.74 "Hg

Humidity: 94%

Dew point: 61 °F

Location of LevisLocation

Historic Weather in Levis — Graph

°F

Levis temperature yesterday

Maximum temperature yesterday: 81 °F (at 12:00 PM)
Minimum temperature yesterday: 57 °F (at 4:04 AM)
Average temperature yesterday: 67 °F

Past Weeks' High & Low Weather Summary

 TemperatureHumidityPressure
High82 °F (Jul 8, 4:00 PM)100% (Jul 12, 2:00 AM)30.27 "Hg (Jul 12, 2:00 AM)
Low46 °F (Jul 11, 5:01 AM)39% (Jul 12, 4:00 PM)29.41 "Hg (Jul 9, 12:46 AM)
Average66 °F77%29.94 "Hg
* Reported Jul 8 2:00 AM — Jul 23 2:00 AM, Levis, Weather by CustomWeather, © 2014

Note: Actual official high and low records may vary slightly from our data, if they occured in-between our weather recording intervals... More about our weather records

Advertising

Levis weather history for previous 24 hours

 ConditionsComfort  
Time TempWeatherWind HumidityBarometerVisibility
2:00 AM
Jul 23
66 °FPassing clouds.No wind88%29.78 "Hg4 mi
1:00 AM66 °FClear.No wind88%29.79 "Hg5 mi
12:00 AM68 °FClear.No wind88%29.81 "Hg6 mi
11:00 PM
Jul 22
72 °FPassing clouds.2 mph83%29.83 "Hg8 mi
10:00 PM73 °FPassing clouds.2 mph74%29.86 "Hg15 mi
9:00 PM75 °FPartly sunny.5 mph69%29.88 "Hg15 mi
8:00 PM77 °FScattered clouds.9 mph65%29.88 "Hg15 mi
7:00 PM81 °FPassing clouds.9 mph58%29.89 "Hg15 mi
12:00 PM81 °FScattered clouds.7 mph62%30.00 "Hg15 mi
11:00 AM77 °FPartly sunny.7 mph69%30.01 "Hg15 mi
10:00 AM75 °FScattered clouds.8 mph74%30.03 "Hg12 mi
9:00 AM72 °FScattered clouds.5 mph78%30.05 "Hg15 mi
8:00 AM68 °FSunny.3 mph83%30.08 "Hg9 mi
7:00 AM63 °FSunny.2 mph94%30.04 "Hg8 mi
6:00 AM57 °FClear.No wind100%30.03 "Hg5 mi
5:47 AM57 °FClear.No wind100%30.03 "Hg3 mi
5:00 AM57 °FPassing clouds.No wind94%30.05 "Hg4 mi
4:58 AM57 °FPassing clouds.No wind94%30.05 "Hg4 mi
4:04 AM57 °FClear.No wind100%30.04 "Hg0 mi
4:02 AM59 °FClear.No wind94%30.04 "Hg1 mi
Weather by CustomWeather, © 2014

See weather overviewHow to use our weather pages